Radiation Dose at Monitoring Post of Fukushima Daini Nuclear Power Station
Date,Time,MP-1(microSv/h),MP-2(microSv/h),MP-3(microSv/h),MP-4(microSv/h),MP-5(microSv/h),MP-6(microSv/h),MP-7(microSv/h),Wind Direction,Wind Velocity(m/s),Rain
2019/10/19,00:00,0.186,0.165,0.277,0.261,0.262,0.141,0.089,north-northwest,4.3,Yes
2019/10/19,00:10,0.186,0.165,0.279,0.258,0.265,0.141,0.089,north-northwest,4.4,Yes
2019/10/19,00:20,0.188,0.167,0.278,0.261,0.262,0.143,0.090,north-northwest,4.1,Yes
2019/10/19,00:30,0.188,0.168,0.279,0.260,0.266,0.144,0.091,north-northwest,4.8,Yes
2019/10/19,00:40,0.188,0.168,0.280,0.260,0.266,0.147,0.093,north-northwest,4.6,Yes
2019/10/19,00:50,0.191,0.170,0.279,0.261,0.265,0.146,0.093,north,3.7,Yes
2019/10/19,01:00,0.191,0.169,0.279,0.260,0.267,0.146,0.094,north-northwest,6.0,Yes
2019/10/19,01:10,0.191,0.171,0.279,0.262,0.265,0.147,0.094,north-northwest,6.2,Yes
2019/10/19,01:20,0.192,0.171,0.278,0.262,0.269,0.148,0.096,north-northwest,6.6,Yes
2019/10/19,01:30,0.191,0.171,0.278,0.262,0.268,0.148,0.096,north-northwest,6.7,Yes
2019/10/19,01:40,0.192,0.172,0.278,0.259,0.270,0.149,0.097,northwest,6.9,Yes
2019/10/19,01:50,0.190,0.171,0.275,0.259,0.266,0.150,0.096,northwest,7.5,Yes
2019/10/19,02:00,0.190,0.172,0.275,0.257,0.268,0.148,0.097,northwest,8.4,Yes
2019/10/19,02:10,0.189,0.171,0.275,0.257,0.267,0.148,0.097,northwest,7.7,Yes
2019/10/19,02:20,0.189,0.172,0.272,0.257,0.267,0.148,0.098,northwest,7.8,Yes
2019/10/19,02:30,0.188,0.172,0.273,0.255,0.267,0.148,0.098,north-northwest,8.7,Yes
2019/10/19,02:40,0.186,0.170,0.274,0.254,0.266,0.146,0.097,north-northwest,8.8,Yes
2019/10/19,02:50,0.187,0.170,0.272,0.254,0.267,0.146,0.097,northwest,8.3,Yes
2019/10/19,03:00,0.185,0.170,0.274,0.253,0.265,0.146,0.097,northwest,8.7,Yes
2019/10/19,03:10,0.185,0.171,0.270,0.255,0.268,0.144,0.098,northwest,9.5,Yes
2019/10/19,03:20,0.184,0.171,0.272,0.253,0.265,0.145,0.098,northwest,8.4,Yes
2019/10/19,03:30,0.184,0.170,0.272,0.252,0.267,0.144,0.097,north-northwest,8.2,Yes
2019/10/19,03:40,0.184,0.170,0.271,0.252,0.264,0.145,0.096,north-northwest,7.0,Yes
2019/10/19,03:50,0.184,0.168,0.270,0.251,0.265,0.144,0.096,north-northwest,7.5,Yes
2019/10/19,04:00,0.183,0.169,0.269,0.252,0.265,0.145,0.096,north-northwest,7.5,Yes
2019/10/19,04:10,0.182,0.169,0.271,0.250,0.264,0.144,0.096,north-northwest,7.3,Yes
2019/10/19,04:20,0.182,0.168,0.270,0.254,0.265,0.143,0.095,north-northwest,7.6,Yes
2019/10/19,04:30,0.183,0.168,0.270,0.250,0.263,0.144,0.095,northwest,7.3,Yes
2019/10/19,04:40,0.181,0.167,0.269,0.252,0.266,0.143,0.094,northwest,7.7,Yes
2019/10/19,04:50,0.183,0.167,0.269,0.251,0.263,0.142,0.095,northwest,7.9,Yes
2019/10/19,05:00,0.181,0.167,0.271,0.250,0.264,0.142,0.094,northwest,8.7,Yes
2019/10/19,05:10,0.181,0.166,0.269,0.250,0.261,0.141,0.094,north-northwest,7.3,Yes
2019/10/19,05:20,0.179,0.165,0.269,0.249,0.262,0.141,0.093,northwest,7.4,Yes
2019/10/19,05:30,0.179,0.166,0.266,0.251,0.259,0.141,0.092,northwest,7.5,Yes
2019/10/19,05:40,0.178,0.164,0.266,0.247,0.261,0.139,0.092,northwest,7.9,Yes
2019/10/19,05:50,0.177,0.163,0.263,0.246,0.259,0.138,0.092,northwest,6.7,Yes
2019/10/19,06:00,0.177,0.162,0.263,0.246,0.257,0.138,0.090,-,CALM,Yes
2019/10/19,06:10,0.175,0.163,0.263,0.245,0.260,0.137,0.090,northwest,6.7,Yes
2019/10/19,06:20,0.176,0.160,0.262,0.246,0.257,0.136,0.089,north-northwest,6.1,Yes
2019/10/19,06:30,0.174,0.161,0.263,0.245,0.257,0.135,0.088,north-northwest,4.8,Yes
2019/10/19,06:40,0.175,0.160,0.261,0.246,0.256,0.136,0.089,north-northwest,3.6,Yes
2019/10/19,06:50,0.175,0.161,0.262,0.244,0.258,0.136,0.089,northwest,4.2,Yes
2019/10/19,07:00,0.175,0.161,0.261,0.245,0.257,0.137,0.089,west-northwest,3.9,Yes
2019/10/19,07:10,0.177,0.161,0.263,0.245,0.258,0.137,0.090,north-northwest,2.9,Yes
2019/10/19,07:20,0.176,0.165,0.264,0.246,0.256,0.138,0.090,northwest,1.6,Yes
2019/10/19,07:30,0.177,0.163,0.264,0.246,0.259,0.136,0.090,west-northwest,1.2,Yes
2019/10/19,07:40,0.176,0.164,0.263,0.247,0.258,0.137,0.090,northwest,0.8,Yes
2019/10/19,07:50,0.178,0.163,0.263,0.249,0.259,0.137,0.091,west-southwest,0.9,Yes
2019/10/19,08:00,0.178,0.163,0.265,0.248,0.259,0.138,0.090,-,CALM,Yes
2019/10/19,08:10,0.180,0.164,0.262,0.249,0.259,0.138,0.091,south-southeast,0.7,Yes
2019/10/19,08:20,0.179,0.164,0.266,0.248,0.261,0.138,0.092,southeast,0.6,Yes
2019/10/19,08:30,0.179,0.165,0.264,0.250,0.260,0.140,0.093,-,CALM,Yes
2019/10/19,08:40,0.180,0.164,0.266,0.250,0.261,0.139,0.093,south-southeast,1.0,Yes
2019/10/19,08:50,0.181,0.166,0.265,0.251,0.261,0.140,0.093,southeast,2.5,Yes
2019/10/19,09:00,0.179,0.165,0.267,0.249,0.261,0.139,0.092,southeast,3.0,Yes
2019/10/19,09:10,0.181,0.164,0.265,0.251,0.260,0.137,0.091,southeast,2.5,Yes
2019/10/19,09:20,0.178,0.163,0.266,0.249,0.259,0.139,0.091,southeast,2.9,Yes
2019/10/19,09:30,0.181,0.165,0.264,0.253,0.261,0.137,0.093,southeast,3.8,Yes
2019/10/19,09:40,0.180,0.165,0.266,0.248,0.258,0.141,0.095,southeast,5.8,Yes
2019/10/19,09:50,0.183,0.166,0.264,0.251,0.262,0.141,0.096,east-southeast,1.9,Yes
2019/10/19,10:00,0.182,0.170,0.267,0.249,0.262,0.144,0.098,east,3.7,Yes
2019/10/19,10:10,0.185,0.171,0.268,0.251,0.264,0.143,0.099,southeast,2.9,Yes
2019/10/19,10:20,0.184,0.170,0.269,0.251,0.264,0.146,0.099,southeast,0.6,Yes
2019/10/19,10:30,0.185,0.171,0.268,0.253,0.267,0.144,0.097,-,CALM,Yes
2019/10/19,10:40,0.183,0.169,0.269,0.253,0.262,0.143,0.096,-,CALM,Yes
2019/10/19,10:50,0.183,0.168,0.266,0.253,0.265,0.142,0.096,west,0.9,Yes
2019/10/19,11:00,0.181,0.166,0.269,0.251,0.261,0.139,0.094,west-northwest,2.1,Yes
2019/10/19,11:10,0.180,0.165,0.265,0.251,0.261,0.139,0.093,northwest,2.9,Yes
2019/10/19,11:20,0.180,0.163,0.267,0.249,0.260,0.138,0.092,northwest,2.7,Yes
2019/10/19,11:30,0.179,0.164,0.264,0.249,0.259,0.137,0.090,northwest,2.7,Yes
2019/10/19,11:40,0.178,0.161,0.264,0.247,0.260,0.135,0.089,northwest,4.0,Yes
2019/10/19,11:50,0.177,0.162,0.261,0.248,0.256,0.135,0.089,northwest,4.4,Yes
2019/10/19,12:00,0.175,0.161,0.263,0.246,0.258,0.135,0.089,northwest,4.9,Yes
2019/10/19,12:10,0.175,0.160,0.259,0.246,0.255,0.134,0.088,northwest,4.9,Yes
2019/10/19,12:20,0.176,0.159,0.263,0.244,0.256,0.134,0.087,northwest,5.7,Yes
2019/10/19,12:30,0.175,0.160,0.260,0.246,0.256,0.132,0.087,north-northwest,5.7,Yes
2019/10/19,12:40,0.176,0.159,0.261,0.245,0.256,0.134,0.086,north-northwest,5.2,Yes
2019/10/19,12:50,0.174,0.160,0.261,0.247,0.257,0.134,0.086,north-northwest,6.7,Yes
2019/10/19,13:00,0.176,0.159,0.263,0.247,0.256,0.134,0.087,north-northwest,5.9,Yes
2019/10/19,13:10,0.175,0.159,0.261,0.245,0.256,0.133,0.086,north-northwest,6.4,Yes
2019/10/19,13:20,0.176,0.159,0.262,0.246,0.255,0.133,0.086,north-northwest,6.8,No
2019/10/19,13:30,0.176,0.160,0.262,0.247,0.257,0.133,0.085,north-northwest,6.0,Yes
2019/10/19,13:40,0.176,0.158,0.264,0.249,0.255,0.132,0.086,north-northwest,6.5,No
2019/10/19,13:50,0.175,0.160,0.263,0.245,0.257,0.133,0.085,north-northwest,7.0,No
2019/10/19,14:00,0.176,0.157,0.262,0.248,0.256,0.133,0.086,north-northwest,6.5,No
2019/10/19,14:10,0.176,0.157,0.263,0.246,0.253,0.131,0.085,north-northwest,5.4,No
2019/10/19,14:20,0.175,0.158,0.260,0.247,0.255,0.132,0.084,north-northwest,5.6,No
2019/10/19,14:30,0.176,0.156,0.263,0.247,0.256,0.132,0.084,north-northwest,5.5,No
2019/10/19,14:40,0.176,0.158,0.261,0.245,0.253,0.131,0.084,north-northwest,4.8,No
2019/10/19,14:50,0.175,0.157,0.264,0.247,0.257,0.133,0.084,north-northwest,4.8,No
2019/10/19,15:00,0.177,0.158,0.263,0.247,0.255,0.132,0.085,north-northwest,4.1,No
2019/10/19,15:10,0.176,0.158,0.263,0.247,0.255,0.132,0.083,north-northwest,3.1,No
2019/10/19,15:20,0.177,0.157,0.265,0.247,0.257,0.133,0.084,northwest,2.9,No
2019/10/19,15:30,0.176,0.158,0.262,0.246,0.255,0.133,0.083,northwest,1.8,No
2019/10/19,15:40,0.177,0.157,0.264,0.249,0.254,0.132,0.084,west-northwest,1.3,No
2019/10/19,15:50,0.177,0.158,0.263,0.248,0.257,0.133,0.083,northwest,1.0,No
2019/10/19,16:00,0.176,0.157,0.264,0.248,0.254,0.133,0.083,north-northwest,1.4,No
2019/10/19,16:10,0.178,0.157,0.264,0.248,0.257,0.133,0.084,northwest,1.8,No
2019/10/19,16:20,0.176,0.157,0.263,0.248,0.256,0.133,0.084,-,CALM,No
2019/10/19,16:30,0.176,0.157,0.265,0.249,0.255,0.132,0.084,-,CALM,No
2019/10/19,16:40,0.178,0.158,0.262,0.247,0.256,0.134,0.084,northeast,1.6,No
2019/10/19,16:50,0.176,0.157,0.265,0.249,0.255,0.133,0.083,northeast,1.8,No
2019/10/19,17:00,0.178,0.157,0.263,0.248,0.257,0.132,0.084,east,1.4,No
2019/10/19,17:10,0.176,0.157,0.265,0.247,0.257,0.133,0.083,south-southeast,1.9,No
2019/10/19,17:20,0.177,0.158,0.265,0.249,0.256,0.132,0.084,south-southeast,2.8,No
2019/10/19,17:30,0.179,0.157,0.264,0.247,0.256,0.133,0.083,south-southeast,3.2,No
2019/10/19,17:40,0.176,0.158,0.267,0.250,0.255,0.133,0.083,south-southeast,4.1,No
2019/10/19,17:50,0.178,0.158,0.264,0.247,0.257,0.132,0.083,south-southeast,4.5,No
2019/10/19,18:00,0.176,0.157,0.266,0.250,0.256,0.133,0.083,south-southeast,3.6,No
2019/10/19,18:10,0.178,0.158,0.264,0.247,0.254,0.133,0.083,south-southeast,3.4,Yes
2019/10/19,18:20,0.178,0.158,0.266,0.249,0.259,0.134,0.084,southeast,2.9,Yes
2019/10/19,18:30,0.180,0.160,0.267,0.251,0.256,0.134,0.085,south-southeast,3.2,Yes
2019/10/19,18:40,0.181,0.162,0.268,0.251,0.261,0.136,0.087,southeast,3.6,Yes
2019/10/19,18:50,0.181,0.163,0.269,0.254,0.258,0.138,0.089,southeast,2.7,Yes
2019/10/19,19:00,0.183,0.161,0.269,0.253,0.262,0.138,0.087,south-southeast,3.2,Yes
2019/10/19,19:10,0.181,0.162,0.269,0.252,0.258,0.137,0.088,southeast,2.5,Yes
2019/10/19,19:20,0.181,0.159,0.266,0.250,0.260,0.136,0.087,south-southeast,2.8,Yes
2019/10/19,19:30,0.180,0.161,0.267,0.252,0.258,0.137,0.087,south-southeast,3.0,Yes
2019/10/19,19:40,0.181,0.159,0.264,0.249,0.258,0.135,0.086,south,2.0,Yes
2019/10/19,19:50,0.180,0.160,0.267,0.251,0.256,0.136,0.086,south,1.8,Yes
2019/10/19,20:00,0.180,0.159,0.264,0.250,0.256,0.135,0.085,south,3.2,Yes
2019/10/19,20:10,0.178,0.159,0.268,0.250,0.257,0.135,0.084,south,4.2,No
2019/10/19,20:20,0.178,0.159,0.265,0.249,0.255,0.135,0.084,south,4.7,No
2019/10/19,20:30,0.178,0.160,0.267,0.249,0.258,0.134,0.084,south,4.3,No
2019/10/19,20:40,0.177,0.158,0.265,0.249,0.255,0.134,0.085,south-southwest,2.9,No
2019/10/19,20:50,0.179,0.158,0.265,0.248,0.258,0.133,0.085,southwest,2.4,Yes
2019/10/19,21:00,0.178,0.157,0.265,0.250,0.256,0.135,0.086,south,1.9,Yes
2019/10/19,21:10,0.178,0.158,0.265,0.248,0.256,0.134,0.086,south-southwest,1.6,No
2019/10/19,21:20,0.177,0.158,0.266,0.250,0.257,0.134,0.085,west-southwest,0.9,No
2019/10/19,21:30,0.178,0.159,0.266,0.247,0.254,0.134,0.084,-,CALM,No
2019/10/19,21:40,0.177,0.157,0.267,0.250,0.258,0.134,0.084,west-southwest,0.6,No
2019/10/19,21:50,0.176,0.159,0.265,0.249,0.256,0.135,0.084,west-southwest,0.8,No
2019/10/19,22:00,0.177,0.159,0.266,0.249,0.258,0.134,0.084,west-northwest,1.5,No
2019/10/19,22:10,0.177,0.157,0.263,0.248,0.255,0.135,0.084,northwest,1.7,No
2019/10/19,22:20,0.179,0.158,0.266,0.249,0.257,0.133,0.084,west-northwest,2.9,No
2019/10/19,22:30,0.177,0.158,0.265,0.249,0.255,0.133,0.084,west,2.6,No
2019/10/19,22:40,0.178,0.157,0.266,0.249,0.257,0.133,0.084,west,3.8,No
2019/10/19,22:50,0.177,0.157,0.265,0.249,0.257,0.133,0.084,west,1.8,No
2019/10/19,23:00,0.178,0.158,0.268,0.247,0.257,0.133,0.084,west,2.8,Yes
2019/10/19,23:10,0.177,0.159,0.266,0.250,0.257,0.134,0.084,west-northwest,1.1,Yes
2019/10/19,23:20,0.177,0.159,0.266,0.249,0.256,0.134,0.083,north,0.8,Yes
2019/10/19,23:30,0.179,0.158,0.265,0.251,0.257,0.135,0.085,west-northwest,2.3,Yes
2019/10/19,23:40,0.179,0.160,0.267,0.249,0.256,0.135,0.085,west-northwest,3.0,Yes
2019/10/19,23:50,0.179,0.159,0.267,0.251,0.258,0.135,0.086,west,3.5,Yes
